Location: St. Louis
(38.6270°N, 90.1994°W)
Time: 10:55:20
(UTC-06:00)

Tiros 1 - All Passes

Search period start: 06 December 2021 00:00
Search period end: 16 December 2021 00:00
Orbit: 630 x 663 km, 48.4° (Epoch: 05 December)

Date Brightness Start Highest point End Pass type
(mag) Time Alt. Az. Time Alt. Az. Time Alt. Az.
06 Dec - 00:53:32 10° WNW 00:57:29 26° SW 01:01:28 10° S night (unlit)
06 Dec - 16:46:00 10° SW 16:50:29 54° SE 16:55:02 10° ENE daylight
06 Dec - 18:28:27 10° W 18:32:49 39° NNW 18:37:13 10° NE visible
06 Dec - 20:12:04 10° NW 20:15:55 24° N 20:19:46 10° NE visible
06 Dec - 21:54:41 10° NW 21:59:03 36° NNE 22:03:26 10° E night (unlit)
06 Dec - 23:36:47 10° WNW 23:41:28 64° SW 23:46:11 10° SE night (unlit)
07 Dec - 01:21:43 10° WSW 01:22:58 11° SW 01:24:13 10° SW night (unlit)
07 Dec - 15:31:03 10° S 15:34:33 22° SE 15:38:05 10° E daylight
07 Dec - 17:11:44 10° WSW 17:16:21 73° NNW 17:21:02 10° NE visible
07 Dec - 18:55:05 10° WNW 18:59:06 28° NNW 19:03:09 10° NE visible
07 Dec - 20:38:22 10° NW 20:42:19 26° N 20:46:19 10° ENE visible
07 Dec - 22:20:31 10° NW 22:25:11 60° NNE 22:29:54 10° ESE night (unlit)
08 Dec - 00:03:06 10° WNW 00:07:10 29° SW 00:11:15 10° SSE night (unlit)
08 Dec - 15:55:44 10° SW 16:00:10 49° SE 16:04:39 10° ENE daylight
08 Dec - 17:38:03 10° W 17:42:26 41° NNW 17:46:52 10° NE visible
08 Dec - 19:21:41 10° WNW 19:25:30 24° N 19:29:21 10° NE visible
08 Dec - 21:04:20 10° NW 21:08:39 35° NNE 21:13:00 10° E night (unlit)
08 Dec - 22:46:26 10° WNW 22:51:07 70° SW 22:55:51 10° SE night (unlit)
09 Dec - 00:30:47 10° WSW 00:32:40 12° SW 00:34:33 10° SSW night (unlit)
09 Dec - 14:40:56 10° S 14:44:15 20° SE 14:47:35 10° E daylight
09 Dec - 16:21:23 10° WSW 16:26:00 79° NNW 16:30:40 10° NE daylight
09 Dec - 18:04:40 10° WNW 18:08:42 28° NNW 18:12:47 10° NE visible
09 Dec - 19:48:00 10° NW 19:51:55 26° N 19:55:52 10° ENE visible
09 Dec - 21:30:11 10° NW 21:34:49 56° NNE 21:39:29 10° ESE night (unlit)
09 Dec - 23:12:40 10° WNW 23:16:51 31° SW 23:21:02 10° SSE night (unlit)
10 Dec - 15:05:28 10° SSW 15:09:51 45° SE 15:14:16 10° ENE daylight
10 Dec - 16:47:39 10° W 16:52:03 43° NNW 16:56:31 10° NE daylight
10 Dec - 18:31:17 10° WNW 18:35:06 24° N 18:38:56 10° NE visible
10 Dec - 20:14:01 10° NW 20:18:16 33° NNE 20:22:32 10° E visible
10 Dec - 21:56:04 10° WNW 22:00:46 76° SW 22:05:30 10° SE night (unlit)
10 Dec - 23:40:03 10° W 23:42:22 14° SW 23:44:40 10° SSW night (unlit)
11 Dec - 13:50:52 10° S 13:53:57 18° SE 13:57:03 10° E daylight
11 Dec - 15:31:02 10° WSW 15:35:39 85° NW 15:40:18 10° NE daylight
11 Dec - 17:14:14 10° WNW 17:18:18 29° NNW 17:22:24 10° NE visible
11 Dec - 18:57:38 10° NW 19:01:31 25° N 19:05:25 10° ENE visible
11 Dec - 20:39:51 10° NW 20:44:26 53° NNE 20:49:04 10° ESE visible
11 Dec - 22:22:16 10° WNW 22:26:31 34° SW 22:30:47 10° SSE night (unlit)
12 Dec - 14:15:13 10° SSW 14:19:32 41° SE 14:23:52 10° ENE daylight
12 Dec - 15:57:15 10° W 16:01:41 46° NNW 16:06:10 10° NE daylight
12 Dec - 17:40:53 10° WNW 17:44:41 24° N 17:48:31 10° NE visible
12 Dec - 19:23:40 10° NW 19:27:52 32° NNE 19:32:05 10° E visible
12 Dec - 21:05:44 10° WNW 21:10:25 82° SW 21:15:09 10° SE night (unlit)
12 Dec - 22:49:24 10° W 22:52:04 15° SW 22:54:43 10° SSW night (unlit)
13 Dec - 13:00:50 10° S 13:03:39 16° SE 13:06:30 10° E daylight
13 Dec - 14:40:42 10° SW 14:45:19 89° SE 14:49:58 10° ENE daylight
13 Dec - 16:23:49 10° WNW 16:27:55 30° NNW 16:32:02 10° NE daylight
13 Dec - 18:07:15 10° NW 18:11:06 25° N 18:14:59 10° ENE visible
13 Dec - 19:49:31 10° NW 19:54:04 49° NNE 19:58:38 10° ESE visible
13 Dec - 21:31:51 10° WNW 21:36:11 37° SW 21:40:32 10° SSE night (unlit)
14 Dec - 13:24:58 10° SSW 13:29:13 37° SE 13:33:28 10° ENE daylight
14 Dec - 15:06:51 10° W 15:11:19 48° NNW 15:15:49 10° NE daylight
14 Dec - 16:50:28 10° WNW 16:54:17 25° N 16:58:07 10° NE daylight
14 Dec - 18:33:20 10° NW 18:37:28 31° NNE 18:41:38 10° ENE visible
14 Dec - 20:15:23 10° WNW 20:20:04 88° SW 20:24:47 10° SE visible
14 Dec - 21:58:49 10° W 22:01:45 16° SW 22:04:41 10° S night (unlit)
15 Dec - 12:10:50 10° SSE 12:13:22 15° SE 12:15:53 10° E daylight
15 Dec - 13:50:22 10° SW 13:54:58 83° SSE 13:59:36 10° ENE daylight
15 Dec - 15:33:24 10° W 15:37:31 31° NNW 15:41:40 10° NE daylight
15 Dec - 17:16:53 10° NW 17:20:42 24° N 17:24:32 10° ENE visible
15 Dec - 18:59:12 10° NW 19:03:41 46° NNE 19:08:12 10° E visible
15 Dec - 20:41:28 10° WNW 20:45:52 41° SW 20:50:16 10° SSE visible
